Tracking 35331 objects as of 14-Sep-2026
HD Live streaming from Space Station
objects crossing your sky now

COSMOS 1373 DEB


COSMOS 1373 DEB is no longer on orbit


NORAD ID: 13276
Int'l Code: 1982-053C
Launch date: June 2, 1982
Source: Commonwealth of Independent States (former USSR) (CIS)
Launch site: TYURATAM MISSILE AND SPACE COMPLEX (TTMTR)
Decay date: 1982-07-19

Note: This is SATELLITE DEBRIS
Your satellite tracking list
Your tracking list is empty




NASA's NSSDC Master Catalog

Two Line Element Set (TLE):
1 13276U 82053  C 82199.70492044  .21168488 +16566-4 +28853-2 0  9990
2 13276 070.3621 358.3226 0014697 265.9522 094.1082 16.34657159007263
Source of the keplerian elements: AFSPC